Date,TemperatureHighF,TemperatureAvgF,TemperatureLowF,DewpointHighF,DewpointAvgF,DewpointLowF,HumidityHigh,HumidityAvg,HumidityLow,PressureMaxIn,PressureMinIn,WindSpeedMaxMPH,WindSpeedAvgMPH,GustSpeedMaxMPH,PrecipitationSumIn
2013-10-8,56,52,50,49,48,47,91,85,76,30.16,30.14,0,0,0,0.01
2013-10-9,76,63,49,62,55,46,96,77,54,30.16,30.09,2,0,4,0.00
2013-10-10,76,62,51,62,57,51,98,85,57,30.16,30.03,4,0,8,0.00
2013-10-11,78,62,50,61,55,49,98,82,50,30.08,29.98,3,0,5,0.00
2013-10-12,78,64,53,67,59,52,97,85,58,30.09,30.00,5,1,9,0.01
2013-10-13,74,64,56,63,55,46,97,74,44,30.28,30.10,4,1,8,0.00
2013-10-14,70,58,48,57,50,44,93,74,52,30.30,30.12,6,2,9,0.00
2013-10-15,68,62,53,65,59,51,96,92,85,30.13,29.90,5,1,10,0.07
2013-10-16,64,58,48,64,54,46,98,87,63,29.97,29.86,5,1,11,0.37
2013-10-17,58,49,43,51,46,42,98,90,75,29.98,29.90,5,1,7,0.15
2013-10-18,66,53,42,53,47,41,98,81,52,30.03,29.92,6,1,10,0.01
2013-10-19,55,48,42,47,44,38,96,86,58,30.01,29.83,5,1,9,0.20
2013-10-20,62,50,40,48,43,38,95,77,54,30.04,29.96,7,2,14,0.00
2013-10-21,63,53,47,52,46,39,90,77,63,30.00,29.91,6,2,11,0.02
2013-10-22,52,44,32,44,38,31,95,82,61,30.04,29.79,2,0,6,0.03
2013-10-23,48,43,39,44,38,34,92,81,62,30.09,29.78,6,2,15,0.00
2013-10-24,42,39,34,38,33,26,94,80,54,30.33,30.08,6,1,12,0.03
2013-10-25,50,37,27,35,29,25,94,77,44,30.50,30.30,3,1,8,0.00
2013-10-26,59,44,30,44,35,28,93,72,55,30.30,29.96,8,2,15,0.00
2013-10-27,60,45,32,42,36,30,96,73,42,30.11,30.02,2,0,5,0.00
2013-10-28,66,48,34,43,37,32,97,72,33,30.26,30.07,5,0,8,0.00
2013-10-29,58,49,40,54,46,36,97,87,80,30.30,30.13,5,1,8,0.02
2013-10-30,70,63,55,67,62,54,99,94,84,30.13,29.96,5,1,7,0.07
2013-10-31,67,64,57,65,61,55,97,91,79,29.96,29.36,10,5,19,0.01